Weather History for Los Angeles Downtown, CA

Change the Weather History Date:

Tuesday, August 20, 2013

  Actual Average Record
Temperature  
Mean Temperature 70 °F 74 °F  
Max Temperature 78 °F 85 °F 97 °F (1986)
Min Temperature 62 °F 64 °F 51 °F (1900)
Degree Days  
Heating Degree Days 0 0  
Month to date heating degree days 0 0  
Since 1 June heating degree days 0 8  
Since 1 July heating degree days 0 0  
Cooling Degree Days 5 9  
Month to date cooling degree days 117 180  
Year to date cooling degree days 681 727  
Since 1 June cooling degree days 523 573  
Growing Degree Days 20 (Base 50)    
Moisture  
Dew Point 59 °F    
Average Humidity 70    
Maximum Humidity 90    
Minimum Humidity 50    
Precipitation  
Precipitation 0.00 in 0.00 in 0.03 in (1906)
Month to date precipitation 0.00 0.02  
Year to date precipitation 2.72 10.64  
Since 1 July precipitation 0.09 0.03  
Sea Level Pressure  
Sea Level Pressure 29.89 in    
Wind  
Wind Speed 2 mph (West)    
Max Wind Speed 8 mph    
Max Gust Speed 15 mph    
Visibility 8 miles    
Events      
T = Trace of Precipitation, MM = Missing Value Source: NWS Daily Summary

Daily Weather History Graph

Daily Weather History Graph

Search for Another Location

Airport:

Trip Planner

Search our weather history database for the weather conditions in past years. The results will help you decide how hot, cold, wet, or windy it might be!

Date:

Astronomy

Aug. 20, 2013 Rise Set
Actual Time 6:18 AM PDT 7:33 PM PDT
Civil Twilight 5:52 AM PDT 7:59 PM PDT
Nautical Twilight 5:21 AM PDT 8:30 PM PDT
Astronomical Twilight 4:48 AM PDT 9:03 PM PDT
Moon 7:11 PM PDT (8/20) 5:52 AM PDT (8/20)
Length of Visible Light 14h 07m
Length of Day
13h 15m
Full, 100% of the Moon is Illuminated
Aug 20
Full
Aug 20
Full
Aug 28
Last Quarter
Sep 5
New
Sep 12
First Quarter

Hourly Weather History & Observations

Time (PDT) Temp. Dew Point Humidity Pressure Visibility Wind Dir Wind Speed Gust Speed Precip Events Conditions
12:47 AM 64.0 °F 60.1 °F 87% 29.90 in 7.0 mi Variable 3.5 mph - N/A   Overcast
1:47 AM 64.0 °F 60.1 °F 87% 29.89 in 7.0 mi Calm Calm - N/A   Overcast
2:47 AM 64.0 °F 59.0 °F 84% 29.89 in 7.0 mi Calm Calm - N/A   Overcast
3:47 AM 64.0 °F 59.0 °F 84% 29.88 in 8.0 mi Calm Calm - N/A   Overcast
4:47 AM 63.0 °F 59.0 °F 87% 29.88 in 7.0 mi Calm Calm - N/A   Overcast
5:47 AM 63.0 °F 59.0 °F 87% 29.89 in 6.0 mi Calm Calm - N/A   Overcast
6:47 AM 63.0 °F 59.0 °F 87% 29.90 in 5.0 mi Calm Calm - N/A   Overcast
7:47 AM 64.0 °F 59.0 °F 84% 29.91 in 5.0 mi Calm Calm - N/A   Haze
8:47 AM 64.9 °F 59.0 °F 81% 29.93 in 5.0 mi Calm Calm - N/A   Haze
9:47 AM 68.0 °F 59.0 °F 73% 29.94 in 7.0 mi Calm Calm - N/A   Overcast
10:04 AM 69.8 °F 60.8 °F 73% 29.93 in 7.0 mi Calm Calm - N/A   Overcast
10:34 AM 69.8 °F 59.0 °F 68% 29.93 in 8.0 mi West 5.8 mph - N/A   Scattered Clouds
10:47 AM 71.1 °F 60.1 °F 68% 29.92 in 8.0 mi Calm Calm - N/A   Partly Cloudy
11:47 AM 73.0 °F 59.0 °F 61% 29.92 in 10.0 mi Variable 3.5 mph - N/A   Clear
12:47 PM 75.9 °F 59.0 °F 56% 29.89 in 10.0 mi West 5.8 mph - N/A   Clear
1:47 PM 77.0 °F 57.9 °F 52% 29.88 in 10.0 mi Variable 3.5 mph - N/A   Clear
2:47 PM 75.9 °F 59.0 °F 56% 29.87 in 10.0 mi Variable 5.8 mph - N/A   Clear
3:47 PM 75.9 °F 59.0 °F 56% 29.86 in 10.0 mi Variable 3.5 mph - N/A   Clear
4:47 PM 75.0 °F 59.0 °F 57% 29.85 in 10.0 mi West 6.9 mph - N/A   Clear
5:47 PM 73.0 °F 59.0 °F 61% 29.84 in 10.0 mi Variable 3.5 mph - N/A   Clear
6:47 PM 70.0 °F 57.9 °F 65% 29.84 in 10.0 mi West 4.6 mph - N/A   Clear
7:47 PM 66.9 °F 57.9 °F 73% 29.86 in 10.0 mi West 5.8 mph - N/A   Clear
8:47 PM 64.9 °F 57.9 °F 78% 29.88 in 10.0 mi Calm Calm - N/A   Clear
9:47 PM 64.9 °F 57.9 °F 78% 29.89 in 10.0 mi Calm Calm - N/A   Clear
10:47 PM 64.9 °F 57.9 °F 78% 29.90 in 10.0 mi Calm Calm - N/A   Clear
11:47 PM 64.9 °F 57.9 °F 78% 29.90 in 10.0 mi Calm Calm - N/A   Clear